Flag for Canada Weather past 2 weeks in Toronto, Ontario, Canada

Now
59 °F

Fog.


Feels Like: 60 °F
Forecast: 59 / 69 °F
Wind: 3 mph from East

Location: Toronto Pearson International Airport

Current Time: Oct 2, 2014 at 2:49:13 AM

Latest Report: Oct 2, 2014 at 2:00 AM


Visibility: 6 mi

Pressure: 30.10 "Hg

Humidity: 94%

Dew point: 57 °F

Location of TorontoLocation

Historic Weather in Toronto — Graph

°F

Toronto temperature yesterday

Maximum temperature yesterday: 63 °F (at 12:00 AM)
Minimum temperature yesterday: 59 °F (at 3:00 AM)
Average temperature yesterday: 60 °F

Past Weeks' High & Low Weather Summary

 TemperatureHumidityPressure
High77 °F (Sep 20, 3:00 PM)94% (Sep 20, 7:00 AM)30.51 "Hg (Sep 20, 7:00 AM)
Low41 °F (Sep 19, 2:00 AM)43% (Sep 17, 4:00 PM)29.53 "Hg (Sep 21, 9:54 AM)
Average61 °F73%30.11 "Hg
* Reported Sep 17 1:00 AM — Oct 2 1:00 AM, Toronto, Weather by CustomWeather, © 2014

Note: Actual official high and low records may vary slightly from our data, if they occured in-between our weather recording intervals... More about our weather records

Advertising

Toronto weather history for previous 24 hours

 ConditionsComfort  
Time TempWeatherWind HumidityBarometerVisibility
1:00 AM
Oct 2
59 °FFog.5 mph94%30.09 "Hg6 mi
12:00 AM61 °FFog.7 mph88%30.11 "Hg6 mi
11:48 PM
Oct 1
61 °FFog.6 mph88%30.11 "Hg6 mi
11:00 PM61 °FOvercast.2 mph88%30.10 "Hg8 mi
10:00 PM61 °FOvercast.5 mph83%30.09 "Hg8 mi
9:00 PM61 °FOvercast.6 mph88%30.09 "Hg8 mi
8:00 PM61 °FOvercast.6 mph88%30.09 "Hg8 mi
7:00 PM59 °FDrizzle. Fog.5 mph94%30.09 "Hg3 mi
6:00 PM59 °FDrizzle. Fog.7 mph94%30.07 "Hg4 mi
5:00 PM59 °FDrizzle. Fog.8 mph94%30.08 "Hg4 mi
4:00 PM59 °FDrizzle. Fog.6 mph94%30.08 "Hg3 mi
3:00 PM59 °FDrizzle. Fog.6 mph94%30.08 "Hg4 mi
2:00 PM59 °FDrizzle. Fog.8 mph94%30.09 "Hg4 mi
1:00 PM59 °FDrizzle. Fog.6 mph94%30.10 "Hg3 mi
12:00 PM59 °FDrizzle. Fog.6 mph94%30.10 "Hg3 mi
11:00 AM59 °FDrizzle. Fog.5 mph88%30.10 "Hg4 mi
10:00 AM59 °FFog.7 mph88%30.09 "Hg5 mi
9:45 AM59 °FFog.6 mph88%30.09 "Hg5 mi
9:00 AM59 °FDrizzle. Fog.6 mph88%30.08 "Hg5 mi
8:00 AM59 °FFog.6 mph88%30.07 "Hg6 mi
7:00 AM59 °FOvercast.8 mph82%30.05 "Hg10 mi
6:00 AM59 °FOvercast.7 mph82%30.04 "Hg12 mi
5:00 AM59 °FOvercast.8 mph82%30.04 "Hg12 mi
4:00 AM59 °FOvercast.10 mph82%30.03 "Hg15 mi
3:00 AM59 °FOvercast.10 mph82%30.03 "Hg12 mi
2:00 AM61 °FOvercast.12 mph83%30.03 "Hg10 mi
Weather by CustomWeather, © 2014

See weather overviewHow to use our weather pages